Regional Weather Roundup
Issued by NWS

Home | Current Version | Previous Version | Graphics & Text | Print | Product List | Glossary On
Versions: 1 2 3 4 5 6 7 8 9 10 11 12 13 14 15 16 17 18 19 20 21 22 23 24 25 26 27 28 29 30 31 32 33 34 35 36 37 38 39 40 41 42 43 44 45 46 47 48 49 50
000
ASUS43 KFSD 050710
RWRSD

WEATHER ROUNDUP FOR SOUTH DAKOTA
NATIONAL WEATHER SERVICE SIOUX FALLS SD
200 AM CDT SAT SEP 05 2015

NOTE: "FAIR" INDICATES FEW OR NO CLOUDS BELOW 12,000 FEET WITH NO
SIGNIFICANT WEATHER AND/OR OBSTRUCTIONS TO VISIBILITY.


SDZ001>005-009-010-012>017-050800-
NORTHWEST AND NORTH CENTRAL SOUTH DAKOTA

CITY           SKY/WX    TMP DP  RH WIND       PRES   REMARKS
BUFFALO          N/A     66  59  78 N14       29.80S
MOBRIDGE       PTCLDY    72  72 100 VRB3      29.78R
$$

SDZ012>016-024>037-041>051-057-063-072>074-050800-
SOUTHWEST AND SOUTH CENTRAL SOUTH DAKOTA

CITY           SKY/WX    TMP DP  RH WIND       PRES   REMARKS
RAPID CTY ARPT CLOUDY    70  59  68 E5        29.83R
PIERRE         PTCLDY    68  66  93 NE7       29.76R
CUSTER         MOCLDY    70  44  39 SE3       29.98S
PHILIP         MOCLDY    68  64  87 E7        29.77S
PINE RIDGE     CLOUDY    74  52  46 W6        29.84R
WINNER         FAIR      75  61  61 S10       29.78F
$$

SDZ004>011-016>023-039-040-050800-
NORTHEAST SOUTH DAKOTA

CITY           SKY/WX    TMP DP  RH WIND       PRES   REMARKS
ABERDEEN       PTCLDY    71  69  93 NE3       29.81S
WATERTOWN      CLEAR     74  69  85 S9        29.85S
BROOKINGS      CLEAR     73  66  78 SE13      29.87F
SISSETON         N/A     69  68  96 S3        29.82S
$$

SDZ017-020-022-023-036>040-048>070-050800-
SOUTHEAST SOUTH DAKOTA

CITY           SKY/WX    TMP DP  RH WIND       PRES   REMARKS
SIOUX FALLS    CLEAR     76  68  76 S12       29.85F
HURON          PTCLDY    74  71  91 SE9       29.78F
CHAMBERLAIN    PTCLDY    70  68  95 SE6       29.78S
MITCHELL       PTCLDY    75  70  84 SE9       29.80S
YANKTON        PTCLDY    75  66  73 SE8       29.82S
$$

ABBREVIATIONS USED IN REMARKS
   TC - TEMPERATURE IN CELSIUS
  WCI - WIND CHILL INDEX
   HX - HEAT INDEX
  VSB - VISIBILITY




USA.gov is the U.S. government's official web portal to all federal, state and local government web resources and services.